This is the latest recevied weather packets stored in our database for station/object N4NVD-13. If no packets are shown the sender has not sent any weather packets the latest 10 day(s).
| Time | Temp. | Humidity | Pressure | Rain* | Wind** | Luminosity | Snow |
|---|---|---|---|---|---|---|---|
| 1778008303 | 27.78° C | 84% | 1006.9 hPa | 0 mm | - | 339 W/m² | - |
| 1778007999 | 27.78° C | 82% | 1007.1 hPa | 0 mm | - | 431 W/m² | - |
| 1778007699 | 27.78° C | 83% | 1006.9 hPa | 0 mm | - | 465 W/m² | - |
| 1778007396 | 27.78° C | 82% | 1007.1 hPa | 0 mm | - | 427 W/m² | - |
| 1778007092 | 27.78° C | 82% | 1007.2 hPa | 0 mm | - | 624 W/m² | - |
| 1778006789 | 27.22° C | 85% | 1007.2 hPa | 0 mm | - | 472 W/m² | - |
| 1778006486 | 26.67° C | 85% | 1007.4 hPa | 0 mm | - | 250 W/m² | - |
| 1778006182 | 26.67° C | 85% | 1007.3 hPa | 0 mm | - | 276 W/m² | - |
| 1778005880 | 27.22° C | 85% | 1007.5 hPa | 0 mm | - | 268 W/m² | - |
| 1778005576 | 26.67° C | 85% | 1007.3 hPa | 0 mm | - | 436 W/m² | - |
| 1778005273 | 26.67° C | 85% | 1007.6 hPa | 0 mm | - | 267 W/m² | - |
| 1778004970 | 27.22° C | 84% | 1007.6 hPa | 0 mm | - | 433 W/m² | - |
| 1778004667 | 26.67° C | 85% | 1007.6 hPa | 0 mm | - | 333 W/m² | - |
| 1778004363 | 27.22° C | 85% | 1007.5 hPa | 0 mm | - | 283 W/m² | - |
| 1778004061 | 27.22° C | 85% | 1007.6 hPa | 0 mm | - | 368 W/m² | - |
| 1778003756 | 26.67° C | 88% | 1007.7 hPa | 0 mm | - | 424 W/m² | - |
| 1778003453 | 26.67° C | 86% | 1007.7 hPa | 0 mm | - | 290 W/m² | - |
| 1778003150 | 26.67° C | 86% | 1007.9 hPa | 0 mm | - | 384 W/m² | - |
| 1778002845 | 26.67° C | 87% | 1007.5 hPa | 0 mm | - | 416 W/m² | - |
| 1778002537 | 26.11° C | 88% | 1008 hPa | 0 mm | - | 406 W/m² | - |
| 1778002234 | 26.11° C | 88% | 1007.9 hPa | 0 mm | - | 414 W/m² | - |
| 1778001932 | 25.56° C | 89% | 1007.9 hPa | 0 mm | - | 406 W/m² | - |
| 1778001628 | 25.56° C | 89% | 1007.9 hPa | 0 mm | - | 179 W/m² | - |
| 1778001323 | 25.56° C | 88% | 1008 hPa | 0 mm | - | 142 W/m² | - |
| 1778001020 | 26.11° C | 88% | 1007.9 hPa | 0 mm | - | 141 W/m² | - |
* Rain latest hour (hover to see other rain measurements)
** Current wind speed in m/s (hover to see current wind gust speed)